Hourly Data Report for October 21, 2014

All times are specified in Local Standard Time (LST). Add 1 hour to adjust for Daylight Saving Time where and when it is observed.

KAMLOOPS A
BRITISH COLUMBIA

50°42'09.000" N
120°26'55.000" W
345.30 m
1163781
71887
YKA

Download Data

Hourly Data (October 2014)
Hourly Data Report for October 21, 2014
Temp Definition
°C
Dew Point Temp Definition
°C
Rel Hum Definition
%
Wind Dir Definition
10's deg

Wind Spd Definition
km/h
Visibility Definition
km
Stn Press Definition
kPa
Hmdx Definition


Wind Chill Definition


Weather Definition


TIME
00:00 Legend Double Dagger 13.2 7.0 66 13 13 32.2 96.49     Rain
01:00 Legend Double Dagger 12.0 7.7 75 6 15 64.4 96.51     Cloudy
02:00 Legend Double Dagger 12.8 5.5 61 13 7 64.4 96.55     LegendNANA
03:00 Legend Double Dagger 12.4 4.4 58 19 13 64.4 96.53     LegendNANA
04:00 Legend Double Dagger 11.1 4.4 63 36 10 64.4 96.59     Mainly Clear
05:00 Legend Double Dagger 8.9 4.2 72 8 5 64.4 96.63     LegendNANA
06:00 Legend Double Dagger 9.1 4.5 73 25 5 64.4 96.64     LegendNANA
07:00 Legend Double Dagger 9.2 5.2 76 36 1 64.4 96.65     Mostly Cloudy
08:00 Legend Double Dagger 11.0 6.2 72 28 3 64.4 96.67     LegendNANA
09:00 Legend Double Dagger 14.2 5.6 56 10 21 64.4 96.68     LegendNANA
10:00 Legend Double Dagger 15.1 4.6 49 8 17 64.4 96.67     Mostly Cloudy
11:00 Legend Double Dagger 16.5 3.0 40 16 4 64.4 96.67     LegendNANA
12:00 Legend Double Dagger 17.5 3.5 39 17 10 64.4 96.65     LegendNANA
13:00 Legend Double Dagger 17.5 3.1 38 15 15 64.4 96.62     Mainly Clear
14:00 Legend Double Dagger 19.3 1.9 31 19 22 64.4 96.62     LegendNANA
15:00 Legend Double Dagger 18.1 0.4 30 20 27 64.4 96.63     LegendNANA
16:00 Legend Double Dagger 17.0 0.7 33 22 16 64.4 96.74     Mainly Clear
17:00 Legend Double Dagger 14.9 0.8 38 11 5 64.4 96.75     LegendNANA
18:00 Legend Double Dagger 14.3 1.6 42 6 14 64.4 96.76     LegendNANA
19:00 Legend Double Dagger 13.9 2.2 45 9 19 64.4 96.74     Mostly Cloudy
20:00 Legend Double Dagger 12.8 1.8 47 6 8 64.4 96.71     LegendNANA
21:00 Legend Double Dagger 13.1 3.5 52 9 19 64.4 96.65     LegendNANA
22:00 Legend Double Dagger 12.8 4.0 55 9 18 64.4 96.62     Mostly Cloudy
23:00 Legend Double Dagger 12.6 3.9 55 9 16 64.4 96.59     LegendNANA

Notes on Data Quality.

Legend

  • E = Estimated
  • M = Missing
  • NA = Not Available
  • ‡ = Partner data that is not subject to review by the National Climate Archives
Date modified: